Wellsville, NY

12:05 PM EDT on October 17, 2019 (GMT -0400)
Wellsville Municipal-Tarantine

Weather History for KELZ - August, 2019

Change the Weather History Date:

Saturday, August 17, 2019

  Actual Average (WUND) Record (WUND)
Temperature  
Mean Temperature 68 °F -  
Max Temperature 78 °F - - (-1)
Min Temperature 57 °F - - (-1)
Cooling Degree Days 2    
Growing Degree Days 18 (Base 50)    
Moisture  
Dew Point 61 °F    
Average Humidity 92    
Maximum Humidity 100    
Minimum Humidity 64    
Precipitation  
Precipitation 0.30 in - - ()
Sea Level Pressure  
Sea Level Pressure 30.04 in    
Wind  
Wind Speed 2 mph ()    
Max Wind Speed 16 mph    
Max Gust Speed 30 mph    
Visibility 4.9 miles    
Events Fog , Rain , Thunderstorm    
Averages and records for this station are not official NWS values.
T = Trace of Precipitation, MM = Missing Value Source: Averaged Metar Reports

Daily Weather History Graph

Daily Weather History Graph

Search for Another Location

Airport or City:

Astronomy

Aug. 17, 2019 Rise Set
Actual Time 6:21 AM EDT 8:09 PM EDT
Civil Twilight 5:51 AM EDT 8:39 PM EDT
Nautical Twilight 5:14 AM EDT 9:16 PM EDT
Astronomical Twilight 4:35 AM EDT 9:55 PM EDT
Moon 9:35 PM EDT 8:09 AM EDT
Length of Visible Light 14h 48m
Length of Day
13h 48m
Waning Gibbous, 96% of the Moon is Illuminated
Aug 17
Waning Gibbous
Aug 23
Last Quarter
Aug 30
New
Sep 5
First Quarter
Sep 14
Full

Hourly Weather History & Observations

Time (EDT) Temp. Dew Point Humidity Pressure Visibility Wind Dir Wind Speed Gust Speed Precip Events Conditions
12:48 AM 61.0 °F 61.0 °F 100% 30.06 in 1.8 mi Calm Calm - N/A   Clear
12:56 AM 63.0 °F 62.1 °F 97% 30.04 in 1.8 mi Calm Calm - N/A   Clear
12:58 AM 63.0 °F 62.1 °F 97% 30.06 in 3.0 mi Calm Calm - N/A   Clear
1:56 AM 62.1 °F 61.0 °F 96% 30.03 in 6.0 mi Calm Calm - N/A   Clear
2:05 AM 61.0 °F 61.0 °F 100% 30.06 in 1.2 mi Calm Calm - N/A   Clear
2:07 AM 61.0 °F 61.0 °F 100% 30.06 in 0.5 mi Calm Calm - N/A Fog Fog
2:15 AM 60.1 °F 60.1 °F 100% 30.06 in 0.2 mi Calm Calm - N/A Fog Fog
2:40 AM 62.1 °F 62.1 °F 100% 30.06 in 0.5 mi Calm Calm - N/A Fog Fog
2:48 AM 60.1 °F 60.1 °F 100% 30.06 in 0.2 mi Calm Calm - N/A Fog Fog
2:56 AM 61.0 °F 61.0 °F 100% 30.02 in 0.2 mi SE 3.5 mph - N/A Fog Fog
3:15 AM 61.0 °F 61.0 °F 100% 30.06 in 1.2 mi Calm Calm - N/A   Scattered Clouds
3:17 AM 61.0 °F 60.1 °F 97% 30.06 in 3.0 mi SW 3.5 mph - N/A   Scattered Clouds
3:47 AM 59.0 °F 59.0 °F 100% 30.06 in 1.0 mi Calm Calm - N/A   Mist
3:50 AM 59.0 °F 59.0 °F 100% 30.06 in 0.2 mi Calm Calm - N/A Fog Fog
3:56 AM 59.0 °F 59.0 °F 100% 30.04 in 0.2 mi Calm Calm - N/A Fog Fog
4:01 AM 59.0 °F 59.0 °F 100% 30.06 in 1.0 mi WSW 4.6 mph - N/A   Mist
4:03 AM 59.0 °F 59.0 °F 100% 30.06 in 4.0 mi WSW 4.6 mph - N/A   Partly Cloudy
4:56 AM 59.0 °F 59.0 °F 100% 30.02 in 3.0 mi Calm Calm - N/A   Clear
5:10 AM 59.0 °F 59.0 °F 100% 30.05 in 10.0 mi Calm Calm - N/A   Clear
5:45 AM 57.9 °F 57.9 °F 100% 30.06 in 1.8 mi South 3.5 mph - N/A   Clear
5:54 AM 57.2 °F 57.2 °F 100% 30.06 in 0.5 mi SW 4.6 mph - N/A Fog Fog
5:56 AM 57.0 °F 57.0 °F 100% 30.04 in 0.5 mi SW 4.6 mph - N/A Fog Fog
5:59 AM 57.9 °F 57.9 °F 100% 30.06 in 1.0 mi SW 4.6 mph - N/A   Clear
6:07 AM 60.1 °F 59.0 °F 96% 30.06 in 10.0 mi SSW 4.6 mph - N/A   Clear
6:34 AM 57.9 °F 57.9 °F 100% 30.05 in 1.8 mi Calm Calm - N/A   Clear
6:44 AM 57.9 °F 57.9 °F 100% 30.05 in 3.0 mi Calm Calm - N/A   Clear
6:56 AM 59.0 °F 57.9 °F 96% 30.02 in 7.0 mi South 4.6 mph - N/A   Clear
7:56 AM 63.0 °F 61.0 °F 93% 30.02 in 10.0 mi SW 5.8 mph - N/A   Clear
8:56 AM 69.1 °F 63.0 °F 81% 30.01 in 10.0 mi SE 4.6 mph - N/A   Partly Cloudy
9:56 AM 71.1 °F 62.1 °F 73% 30.02 in 10.0 mi SSW 6.9 mph - N/A   Overcast
10:56 AM 72.0 °F 63.0 °F 73% 30.02 in 10.0 mi SSW 11.5 mph 18.4 mph N/A   Overcast
11:56 AM 73.9 °F 63.0 °F 68% 30.02 in 10.0 mi SSW 12.7 mph 18.4 mph N/A   Overcast
12:56 PM 73.9 °F 63.0 °F 68% 30.02 in 10.0 mi SSW 10.4 mph - N/A   Overcast
1:56 PM 78.1 °F 64.9 °F 64% 30.01 in 10.0 mi SW 11.5 mph 24.2 mph N/A   Mostly Cloudy
2:56 PM 75.0 °F 63.0 °F 66% 30.01 in 10.0 mi WSW 8.1 mph 19.6 mph N/A   Partly Cloudy
3:22 PM 73.9 °F 64.0 °F 71% 30.03 in 10.0 mi SSW 6.9 mph - N/A Thunderstorm Scattered Clouds
3:36 PM 71.1 °F 64.9 °F 81% 30.04 in 1.8 mi WSW 16.1 mph 29.9 mph 0.06 in Rain , Thunderstorm Heavy Thunderstorms and Rain
3:46 PM 66.9 °F 59.0 °F 76% 30.03 in 0.8 mi WSW 8.1 mph 25.3 mph 0.18 in Rain , Thunderstorm Heavy Thunderstorms and Rain
3:50 PM 64.4 °F 60.8 °F 88% 30.04 in 2.0 mi SW 6.9 mph 18.4 mph 0.18 in Rain , Thunderstorm Light Thunderstorms and Rain
3:56 PM 64.0 °F 61.0 °F 90% 30.02 in 10.0 mi SW 9.2 mph - 0.19 in Rain , Thunderstorm Light Thunderstorms and Rain
4:09 PM 64.9 °F 63.0 °F 93% 30.03 in 1.8 mi Variable 4.6 mph - 0.06 in Rain , Thunderstorm Heavy Thunderstorms and Rain
4:27 PM 64.9 °F 63.0 °F 93% 30.03 in 3.0 mi North - - 0.11 in Rain , Thunderstorm Light Thunderstorms and Rain
4:41 PM 66.0 °F 64.0 °F 93% 30.03 in 10.0 mi Calm Calm - 0.11 in Rain , Thunderstorm Light Rain
4:56 PM 64.9 °F 64.0 °F 97% 30.03 in 5.0 mi Variable 4.6 mph - 0.11 in   Mostly Cloudy
5:56 PM 66.9 °F 64.9 °F 93% 30.02 in 10.0 mi SSW 5.8 mph - N/A   Scattered Clouds
6:56 PM 69.1 °F 66.0 °F 90% 30.02 in 10.0 mi Calm Calm - N/A   Clear
7:56 PM 66.9 °F 64.0 °F 90% 30.01 in 10.0 mi SW 4.6 mph - N/A   Clear
8:56 PM 66.0 °F 63.0 °F 90% 30.00 in 10.0 mi SW 4.6 mph - N/A   Clear
9:56 PM 64.0 °F 63.0 °F 96% 30.01 in 6.0 mi ESE 3.5 mph - N/A   Clear
10:12 PM 63.0 °F 63.0 °F 100% 30.05 in 1.8 mi Calm Calm - N/A   Clear
10:25 PM 63.0 °F 63.0 °F 100% 30.05 in 3.0 mi Calm Calm - N/A   Clear
10:56 PM 64.9 °F 63.0 °F 93% 30.02 in 9.0 mi SW 3.5 mph - N/A   Clear
11:56 PM 64.0 °F 63.0 °F 96% 30.03 in 10.0 mi SW 3.5 mph - N/A   Clear